This demonstration page uses our WeatherBlox Daily Observations layout. Learn more.

38.80484, -77.04692

Hourly Observations for August 5, 2019

Temp ( °F °C ) Dew Point ( °F °C ) Humidity (%) Winds ( mph kmh ) Pressure ( in mb ) Visibility ( mi km ) Precip ( " mm )
12:52 am 00:52 Cloudy 79 26.1 64 17.8 60 60 S 5 7 29.94 1014 10 16.09344 0 0
1:52 am 01:52 Cloudy 78 25.6 66 18.9 67 67 SSW 3 6 29.91 1013 10 16.09344 0 0
2:52 am 02:52 Cloudy 77 25 65 18.3 66 66 WSW 5 7 29.91 1013 10 16.09344 0 0
3:52 am 03:52 Cloudy 75 23.9 63 17.2 66 66 NNW 6 9 29.91 1013 10 16.09344 0 0
4:52 am 04:52 Cloudy 75 23.9 65 18.3 71 71 Calm 29.91 1013 10 16.09344 0 0
5:52 am 05:52 Cloudy 74 23.3 66 18.9 76 76 NNW 3 6 29.94 1014 10 16.09344 0 0
6:52 am 06:52 Cloudy 74 23.3 67 19.4 79 79 NNW 6 9 29.94 1014 10 16.09344 0 0
7:52 am 07:52 Cloudy 77 25 66 18.9 69 69 NNE 7 11 29.97 1015 10 16.09344 0 0
8:52 am 08:52 Sunny 78 25.6 67 19.4 69 69 NNE 9 15 29.97 1015 10 16.09344 0 0
9:52 am 09:52 Cloudy 81 27.2 68 20 65 65 NE 7 11 29.97 1015 10 16.09344 0 0
10:52 am 10:52 Cloudy 83 28.3 68 20 61 61 NNE 7 11 29.97 1015 10 16.09344 0 0
11:52 am 11:52 Cloudy 86 30 69 20.6 57 57 NNE 5 7 29.97 1015 10 16.09344 0 0
12:52 pm 12:52 Cloudy 88 31.1 68 20 52 52 VRB 6 9 29.94 1014 10 16.09344 0 0
1:25 pm 13:25 Cloudy with Thunderstorms 88 31.1 67 19.4 50 50 ENE 5 7 29.94 1014 10 16.09344 0 0
1:52 pm 13:52 Cloudy 89 31.7 64 17.8 43 43 Calm 29.94 1014 10 16.09344 0 0
2:28 pm 14:28 Cloudy with Nearby Thunderstorms 87 30.6 65 18.3 48 48 SE 20 31 29.94 1014 10 16.09344 0 0
2:52 pm 14:52 Cloudy with Nearby Thunderstorms 84 28.9 65 18.3 53 53 S 12 19 29.94 1014 10 16.09344 0 0
3:08 pm 15:08 Cloudy with Thunderstorms 83 28.3 65 18.3 55 55 SSE 8 13 29.97 1015 10 16.09344 0 0
3:52 pm 15:52 Mostly Cloudy with Nearby Thunderstorms 84 28.9 65 18.3 53 53 S 8 13 29.91 1013 10 16.09344 0 0
4:03 pm 16:03 Mostly Sunny 84 28.9 66 18.9 55 55 S 7 11 29.94 1014 10 16.09344 0 0
4:52 pm 16:52 Mostly Cloudy 84 28.9 62 16.7 48 48 SSW 7 11 29.91 1013 10 16.09344 0 0
4:57 pm 16:57 Mostly Cloudy with Nearby Thunderstorms 84 28.9 63 17.2 49 49 S 6 9 29.94 1014 10 16.09344 0 0
5:12 pm 17:12 Mostly Cloudy 84 28.9 63 17.2 49 49 S 6 9 29.94 1014 10 16.09344 0 0
5:52 pm 17:52 Mostly Cloudy 84 28.9 64 17.8 51 51 S 6 9 29.91 1013 10 16.09344 0 0
6:52 pm 18:52 Mostly Cloudy 82 27.8 65 18.3 56 56 SSE 9 15 29.91 1013 10 16.09344 0 0
7:52 pm 19:52 Mostly Cloudy 80 26.7 66 18.9 62 62 S 6 9 29.91 1013 10 16.09344 0 0
8:52 pm 20:52 Mostly Cloudy 78 25.6 68 20 71 71 S 7 11 29.91 1013 10 16.09344 0 0
9:52 pm 21:52 Mostly Cloudy 78 25.6 68 20 71 71 SW 3 6 29.91 1013 10 16.09344 0 0
10:52 pm 22:52 Mostly Cloudy 78 25.6 68 20 71 71 S 5 7 29.91 1013 10 16.09344 0 0
11:52 pm 23:52 Cloudy 77 25 68 20 74 74 SW 6 9 29.94 1014 10 16.09344 0 0

Powered by AerisWeather